Starlink 34145

operational
NORAD ID: 64110 Int'l Des: 2025-110 Owner: SPXS Country: US Constellation: starlink
LEOCIRCULAR

关于 Starlink 34145

正在加载描述...

实时位置

正在加载3D地球...

即将过境

高度历史

Altitude vs Time

uPlot chart will show altitude changes over time

两行轨道根数

1 64110U 25110Q 26095.48921404 .00026711 00000-0 91067-3 0 9998
2 64110 53.1574 262.4210 0001067 99.0090 261.1032 15.30202389 49985
Epoch: Apr 5, 2026 • Age: 6 hours

当前状态

高度 494.1 km
速度 7.62 km/s
星下点 -52.56°S, 85.77°E
发射日期 May 23, 2025
运行时间 0.8 years
类型 internet

技术详情

分类 Payload
质量 575.00 kg
干质量 530.00 kg
总质量 575.00 kg
长度 0.30 m
直径 4.10 m
跨度 29.00 m
形状 Box + pan
制造商 SPXS
平台类型 Starlink V2MO
阶段状态 In Orbit
所有者/国家 SPXS/US

大型星座

Loading constellations...